カタログに戻る

GEESAT 6-01

運用中科学LEO
NORAD 65713·PAYLOAD·🇨🇳 China

打ち上げ Sep 24, 2025 から Yellow Sea Launch Area

Loading…

次のパス (今後24時間)

TLE

最新Source: Space-Track

元期: Sep 14, 2026, 09:07 UTC

1 65713U 25214B   26257.38030687  .00001009  00000-0  14854-3 0  9998
2 65713  49.9854 255.2782 0011943 212.8788 147.1408 14.83558376 52741

AllMySatでGEESAT 6-01をリアルタイム追跡

Download on the App Store